{"data":{"norad_id":45572,"epoch":"2026-07-31T21:57:56.846592Z","epoch_age_seconds":4388839,"freshness":"OLD","line1":"1 45572U 20025AT  26212.91524128  .03041889  12159-4  53868-3 0  9995","line2":"2 45572  53.0252 336.0797 0011160 314.6137  45.3995 16.31732829349688","mean_motion":16.31732829,"eccentricity":0.001116,"inclination_deg":53.0252,"raan_deg":336.0797,"arg_perigee_deg":314.6137,"mean_anomaly_deg":45.3995,"bstar":0.00053868,"rev_number":34968,"period_min":88.249741281635,"perigee_km":180.55943818615,"apogee_km":195.21480402445,"semimajor_km":6566.0241211053,"source":"CELESTRAK","updated_at":"2026-08-01T09:00:48.834993Z"}}